Wind_Speed
16 16 16 16 15 14 14 14 14 12 12 11 11 11 11 11 11 11 11 11 12 13 13 14 14 14 14 14 14 14 14 14 14 14 14 14 14 14 14 14 14 14 14 14
17 17 18 17 16 15 15 14 14 13 12 11 12 12 11 11 11 11 11 11 12 13 13 14 14 14 14 14 15 15 14 14 15 15 15 14 14 15 14 14 15 15 15 14
18 18 20 19 17 16 16 15 14 14 12 12 12 11 11 11 11 11 11 11 11 12 13 14 14 14 14 14 14 14 15 15 15 15 15 15 14 14 14 15 15 15 16 15
20 20 22 18 17 16 16 15 15 15 14 13 12 12 11 11 11 12 12 12 11 11 12 13 14 14 14 15 15 15 15 15 15 15 14 14 14 14 14 15 15 16 16 16
23 22 21 19 18 17 17 16 15 15 15 14 13 13 12 12 12 12 13 13 13 13 13 13 13 14 14 14 15 16 16 16 16 15 15 15 15 15 15 15 16 16 16 16
24 23 22 19 18 18 19 17 15 15 15 15 14 14 12 13 13 14 14 14 14 14 14 14 14 14 15 15 16 16 16 16 16 16 16 16 16 16 16 16 16 16 16 16
25 24 22 19 19 19 20 17 16 16 16 16 15 14 14 13 14 14 15 15 15 15 15 15 16 16 15 15 16 16 16 16 17 17 17 17 17 17 17 16 16 16 17 18
25 25 23 20 19 19 19 18 17 17 17 17 16 16 15 15 15 15 15 15 16 16 16 16 16 16 16 16 16 17 17 17 17 17 17 17 17 17 17 17 17 17 18 19
25 24 22 21 19 19 19 18 17 17 18 18 18 17 16 16 16 16 16 16 16 16 16 16 16 16 16 16 17 17 17 17 17 17 17 17 17 17 17 17 17 17 18 18
25 24 23 21 20 20 19 19 18 18 18 18 18 17 17 17 17 17 17 17 17 17 17 16 17 17 17 17 17 18 18 18 18 17 17 17 17 17 18 18 18 18 18 19
25 24 24 23 22 22 21 20 20 19 20 20 19 19 18 18 18 19 19 18 18 17 17 17 17 17 17 17 18 18 19 19 19 18 18 18 18 18 19 20 20 20 21 21
27 26 25 24 24 23 21 21 21 21 21 21 21 20 19 19 19 19 19 19 19 18 18 18 18 18 18 18 19 20 20 19 19 19 19 19 19 19 20 21 21 22 23 23
27 26 26 26 25 25 23 22 21 21 21 22 22 21 20 20 20 19 19 19 19 19 19 18 19 19 19 19 20 20 20 20 20 21 21 21 21 21 22 22 23 24 25 25
26 26 27 27 26 25 24 24 23 22 22 22 22 22 21 21 20 20 19 19 20 19 19 19 19 19 20 20 20 20 21 21 21 22 22 23 23 23 23 24 24 25 25 25
26 26 26 26 25 25 25 25 24 23 22 22 22 22 22 22 21 21 20 19 19 19 19 19 20 20 20 20 21 21 22 22 22 23 23 23 23 24 24 25 25 25 26 26
27 27 27 27 26 25 25 25 24 24 24 24 23 23 23 23 22 21 21 21 20 20 20 20 20 20 20 21 21 22 22 23 23 24 24 24 24 24 25 25 26 26 27 27
28 27 27 26 26 25 26 25 24 24 25 24 25 25 24 24 23 22 22 22 22 22 22 21 21 21 21 21 21 22 22 23 23 23 24 24 25 25 26 26 26 27 28 28
28 27 27 26 26 26 26 25 25 25 25 25 26 26 26 25 24 24 23 24 23 23 22 22 22 22 22 22 22 23 23 23 23 23 24 25 25 26 26 27 28 29 29 31
27 28 28 26 26 26 25 25 25 26 26 26 26 27 27 27 26 25 25 24 24 23 23 23 23 24 24 24 24 24 24 24 24 25 25 25 26 26 27 28 29 31 31 32
26 26 27 26 25 25 25 25 26 26 26 26 27 27 27 27 27 26 26 25 25 24 24 24 25 25 25 26 26 26 26 26 26 26 27 27 27 28 28 29 31 32 32 34
26 26 26 26 25 25 25 26 26 26 26 26 27 27 27 27 27 27 27 26 26 25 25 25 25 26 26 27 27 27 27 28 28 28 29 29 30 30 30 31 32 33 34 35
27 27 27 27 26 25 25 25 25 26 26 27 27 27 27 27 27 28 28 27 27 27 27 27 27 27 27 28 28 29 29 29 30 31 31 31 31 32 32 32 33 34 35 36
28 27 28 28 27 25 24 25 25 25 26 27 27 28 28 27 28 28 28 28 28 28 28 28 28 29 29 29 29 29 30 30 31 32 32 31 32 32 33 33 34 35 36 36
27 27 28 28 27 26 25 25 26 26 26 27 27 28 29 29 28 28 28 29 28 28 28 28 29 30 30 30 31 31 31 31 32 32 32 32 33 33 33 34 35 35 35 36
26 27 28 28 27 27 26 26 26 27 27 27 28 28 28 29 29 28 28 29 29 29 29 30 30 30 30 31 31 32 32 32 33 33 33 34 34 34 34 34 34 35 35 36
26 26 27 27 27 27 27 27 27 27 27 27 27 28 29 29 28 28 28 29 29 30 30 31 31 31 32 32 32 32 32 33 34 34 35 35 35 35 35 35 35 35 36 37
26 26 26 27 27 27 27 26 26 27 27 27 27 28 29 28 28 28 29 29 30 30 31 32 32 32 33 33 33 33 33 33 34 35 35 35 35 36 35 36 36 37 38 39
Wind_Direction
239 238 240 242 244 246 248 247 250 255 259 257 252 253 254 250 248 245 244 240 235 236 234 233 232 231 233 235 236 237 239 242 244 245 249 253 254 256 258 258 260 263 265 266
239 240 241 243 243 245 246 244 247 248 251 253 251 252 257 255 250 245 242 239 236 235 235 233 231 230 232 235 236 238 240 242 243 246 250 252 255 258 258 258 261 264 265 265
243 242 242 242 243 246 247 248 249 246 243 248 252 253 253 253 248 246 246 243 240 238 236 234 232 231 233 235 237 238 241 244 245 246 250 252 254 257 257 259 263 265 265 266
244 244 244 242 242 246 247 247 249 249 244 245 251 250 250 250 247 244 245 244 244 242 241 238 235 236 238 239 239 240 242 244 245 245 248 251 254 259 262 265 267 268 269 269
244 247 246 241 239 243 248 248 250 250 245 246 248 246 246 245 246 244 242 244 243 244 245 245 244 243 244 244 244 243 244 246 245 245 249 254 258 261 264 266 268 269 269 270
244 246 244 242 241 241 244 246 248 249 248 247 249 251 250 248 247 247 245 244 244 245 246 247 247 247 247 247 247 247 246 246 246 247 250 255 258 263 266 268 269 269 269 271
243 246 246 244 243 243 245 248 246 248 248 248 246 248 248 250 251 250 247 246 246 248 248 248 249 250 251 251 251 250 249 249 249 249 252 254 258 263 266 267 270 271 272 274
243 245 246 247 247 246 246 247 246 247 249 248 249 248 250 252 252 251 249 247 247 248 247 248 250 252 254 253 251 251 252 252 252 253 254 256 259 262 265 268 270 270 273 276
244 246 247 248 247 245 245 246 245 245 247 248 250 250 251 253 252 251 250 247 246 247 248 249 250 252 254 253 252 251 251 251 252 254 256 260 261 263 265 269 271 273 276 279
241 243 245 245 246 246 246 249 247 246 247 247 248 252 253 253 253 252 252 250 248 247 250 251 251 252 252 252 250 248 249 250 252 255 257 260 262 264 266 269 271 274 276 278
240 242 244 243 244 243 245 248 249 249 248 248 250 253 254 253 253 254 253 252 249 249 250 250 251 251 251 251 250 249 250 252 255 257 258 260 261 263 266 269 271 274 276 278
239 241 242 243 244 245 248 248 248 249 249 249 248 251 254 254 255 256 254 250 247 248 249 250 251 251 250 250 250 251 254 254 255 258 261 263 266 269 270 272 274 276 277 278
236 237 238 240 242 244 246 247 247 248 249 248 248 250 253 255 257 257 255 252 246 245 246 248 251 251 252 252 253 254 255 256 257 260 261 264 268 271 272 273 275 277 279 280
236 237 239 239 240 243 244 246 248 248 248 247 248 251 253 254 255 255 255 253 248 245 246 247 249 251 254 256 256 256 258 259 260 261 263 266 268 270 272 274 277 278 279 281
234 237 239 239 240 242 244 246 247 248 247 246 246 249 251 252 252 253 253 254 251 248 249 249 250 252 254 256 257 258 260 261 262 263 265 267 269 271 273 276 277 278 280 281
235 236 237 238 239 242 244 245 246 247 248 247 246 247 249 249 249 250 251 253 254 253 251 251 252 254 256 258 259 260 261 262 263 265 267 268 270 271 274 275 277 278 280 282
234 235 236 238 239 241 243 244 245 246 247 247 247 246 247 248 247 248 251 252 253 254 252 252 254 255 257 259 260 262 264 264 264 266 268 269 270 271 273 275 277 280 281 284
234 236 238 238 238 240 241 242 244 246 248 248 248 247 247 247 248 249 250 251 252 252 252 253 254 256 257 260 262 263 264 266 267 268 269 271 272 273 275 277 279 281 284 286
235 237 236 237 239 241 241 242 244 246 247 247 249 248 246 247 248 249 250 252 252 253 252 253 255 257 258 261 263 264 266 267 269 271 273 274 274 275 277 279 282 284 286 288
233 235 235 236 238 241 243 244 246 247 248 248 248 248 247 247 248 249 250 252 253 254 253 254 256 258 260 262 263 264 266 268 271 273 275 276 276 277 279 281 284 285 287 289
232 234 237 238 240 244 245 246 247 248 250 250 249 250 248 247 247 249 251 252 253 255 256 258 259 260 261 263 264 265 267 269 272 274 276 277 278 280 281 282 284 286 288 290
233 236 239 240 242 244 245 246 247 248 249 250 250 251 248 247 248 250 253 254 254 256 258 260 261 262 263 263 264 266 267 270 273 275 276 277 279 281 282 283 285 287 289 291
235 236 239 241 242 243 245 248 249 250 251 252 253 252 250 248 250 252 253 254 256 257 259 261 262 262 264 265 266 268 269 271 275 277 278 279 280 281 283 285 287 288 290 292
236 236 238 240 242 243 246 249 251 252 253 255 254 254 251 250 251 253 253 254 256 258 260 262 262 263 265 267 268 269 270 272 274 276 277 279 280 282 284 286 287 289 291 293
238 239 240 241 243 246 248 250 252 253 255 255 255 254 252 251 252 253 254 255 257 258 260 262 263 264 266 268 269 270 271 272 274 275 277 279 281 282 284 287 288 290 292 294
240 241 241 241 245 248 250 252 253 254 254 254 254 253 251 252 253 255 256 257 258 260 262 264 265 266 268 270 271 272 273 274 275 276 278 280 281 283 285 287 288 291 293 294
241 243 244 246 247 249 251 253 254 253 253 254 254 253 253 254 256 258 260 260 261 263 264 266 267 267 269 270 271 273 274 275 276 277 279 280 281 282 284 287 288 290 293 294
Height
5819 5821 5822 5822 5823 5824 5825 5826 5827 5828 5828 5829 5829 5830 5830 5831 5831 5832 5833 5833 5834 5835 5836 5837 5839 5840 5841 5843 5844 5845 5847 5848 5848 5849 5850 5850 5851 5851 5851 5851 5851 5852 5851 5851
5815 5816 5817 5818 5819 5820 5821 5822 5823 5824 5825 5826 5826 5827 5827 5827 5828 5829 5830 5830 5831 5832 5833 5834 5836 5837 5838 5839 5841 5842 5843 5844 5845 5845 5846 5847 5847 5847 5847 5847 5847 5847 5847 5847
5810 5811 5812 5813 5815 5816 5817 5818 5819 5820 5822 5822 5822 5823 5824 5824 5825 5826 5826 5827 5828 5829 5830 5831 5832 5834 5835 5836 5837 5838 5839 5840 5841 5841 5842 5842 5843 5843 5843 5843 5843 5843 5843 5842
5804 5806 5807 5812 5812 5812 5813 5814 5815 5816 5818 5818 5819 5820 5820 5821 5822 5823 5823 5824 5825 5826 5827 5828 5829 5830 5831 5832 5833 5834 5835 5836 5837 5837 5838 5838 5839 5839 5839 5839 5839 5838 5838 5838
5798 5799 5802 5806 5807 5807 5808 5810 5811 5812 5813 5814 5815 5816 5817 5817 5818 5819 5820 5820 5821 5822 5823 5824 5825 5826 5827 5828 5829 5830 5831 5832 5833 5833 5834 5834 5834 5835 5834 5834 5834 5834 5833 5833
5792 5793 5796 5801 5803 5802 5804 5805 5807 5808 5809 5810 5811 5812 5813 5813 5814 5815 5816 5816 5817 5818 5819 5820 5821 5822 5823 5824 5825 5826 5827 5828 5828 5829 5829 5830 5830 5830 5830 5830 5829 5829 5829 5828
5786 5787 5790 5795 5796 5797 5799 5802 5802 5803 5804 5806 5806 5808 5809 5809 5810 5811 5811 5812 5813 5814 5815 5816 5817 5818 5819 5820 5821 5822 5822 5823 5824 5824 5825 5825 5825 5825 5825 5825 5825 5824 5824 5823
5779 5782 5787 5788 5790 5792 5794 5795 5796 5798 5799 5800 5802 5803 5804 5805 5805 5806 5807 5807 5808 5810 5811 5812 5813 5814 5815 5816 5816 5817 5818 5818 5819 5819 5820 5820 5821 5821 5820 5820 5820 5819 5818 5818
5775 5778 5780 5782 5784 5786 5787 5789 5791 5792 5794 5795 5796 5797 5799 5800 5800 5801 5802 5803 5804 5805 5806 5807 5808 5809 5810 5811 5811 5812 5813 5813 5814 5814 5815 5815 5816 5816 5815 5815 5815 5814 5814 5813
5767 5770 5773 5775 5777 5779 5781 5783 5785 5786 5788 5789 5790 5791 5793 5794 5795 5796 5796 5797 5798 5800 5801 5802 5803 5804 5805 5806 5806 5807 5808 5808 5809 5810 5810 5810 5810 5810 5810 5810 5809 5809 5808 5808
5760 5764 5766 5769 5771 5773 5775 5777 5778 5780 5781 5783 5784 5785 5787 5788 5789 5790 5790 5791 5793 5794 5796 5797 5798 5799 5800 5800 5801 5802 5803 5803 5804 5804 5805 5805 5805 5805 5804 5804 5804 5803 5802 5801
5753 5757 5759 5762 5764 5766 5768 5770 5772 5774 5775 5777 5778 5779 5781 5782 5783 5784 5785 5786 5787 5788 5790 5791 5792 5793 5794 5795 5796 5797 5798 5798 5798 5799 5799 5799 5799 5799 5798 5798 5797 5797 5796 5795
5745 5748 5751 5754 5756 5759 5761 5763 5765 5767 5769 5770 5772 5773 5775 5776 5777 5778 5779 5780 5781 5782 5784 5785 5786 5788 5789 5789 5790 5791 5792 5792 5793 5793 5793 5793 5793 5793 5792 5792 5791 5790 5789 5788
5738 5741 5743 5746 5749 5752 5754 5756 5758 5760 5762 5764 5765 5767 5768 5770 5771 5772 5773 5774 5775 5777 5778 5779 5781 5782 5783 5783 5784 5785 5786 5786 5786 5786 5787 5787 5786 5786 5785 5785 5784 5783 5782 5780
5730 5733 5736 5738 5741 5744 5746 5748 5750 5752 5754 5756 5758 5760 5762 5763 5765 5766 5767 5768 5769 5771 5772 5773 5774 5776 5777 5777 5778 5779 5779 5780 5780 5780 5780 5780 5780 5779 5778 5777 5777 5775 5774 5773
5722 5725 5728 5731 5734 5736 5739 5741 5743 5745 5747 5749 5751 5753 5755 5756 5758 5759 5761 5762 5764 5765 5766 5767 5768 5769 5770 5771 5772 5772 5772 5772 5773 5773 5773 5773 5772 5772 5771 5770 5769 5768 5767 5765
5714 5717 5720 5723 5726 5728 5731 5734 5736 5738 5740 5741 5744 5746 5748 5749 5751 5753 5754 5756 5757 5758 5760 5761 5762 5762 5763 5764 5765 5765 5765 5765 5765 5765 5765 5765 5765 5764 5763 5762 5761 5760 5758 5757
5706 5709 5712 5715 5718 5720 5723 5725 5728 5730 5732 5734 5736 5738 5740 5742 5744 5746 5747 5748 5750 5751 5752 5753 5754 5755 5756 5757 5758 5758 5758 5758 5758 5758 5758 5757 5757 5756 5755 5754 5753 5751 5750 5748
5698 5701 5704 5707 5710 5712 5714 5717 5720 5722 5724 5725 5728 5730 5732 5734 5736 5738 5740 5741 5742 5744 5745 5746 5747 5748 5749 5750 5750 5751 5751 5751 5751 5750 5750 5749 5749 5748 5747 5745 5744 5742 5740 5738
5690 5693 5695 5698 5701 5704 5706 5709 5711 5713 5715 5717 5719 5721 5723 5726 5728 5730 5731 5733 5734 5736 5737 5738 5739 5740 5741 5742 5742 5743 5743 5743 5742 5742 5742 5741 5740 5739 5738 5736 5735 5733 5731 5728
5683 5685 5688 5691 5694 5696 5699 5701 5703 5705 5707 5708 5710 5713 5715 5717 5719 5721 5723 5725 5726 5728 5729 5730 5731 5732 5732 5733 5734 5734 5734 5734 5734 5733 5733 5732 5731 5729 5728 5727 5725 5723 5721 5718
5675 5678 5680 5683 5686 5688 5690 5692 5694 5696 5698 5700 5702 5704 5706 5708 5711 5713 5715 5716 5718 5719 5720 5721 5722 5723 5723 5724 5724 5725 5725 5725 5724 5724 5723 5722 5721 5720 5718 5716 5714 5712 5710 5707
5667 5670 5673 5676 5678 5680 5682 5684 5686 5688 5690 5692 5693 5695 5697 5700 5702 5704 5706 5708 5709 5710 5711 5712 5713 5714 5714 5715 5715 5715 5715 5715 5715 5714 5713 5712 5711 5709 5708 5706 5704 5702 5699 5696
5659 5662 5665 5667 5670 5672 5674 5676 5678 5679 5681 5683 5685 5686 5688 5691 5693 5695 5697 5698 5699 5701 5702 5702 5703 5704 5704 5705 5705 5705 5705 5705 5704 5703 5702 5701 5700 5699 5697 5695 5693 5690 5688 5685
5652 5655 5657 5659 5662 5664 5666 5668 5669 5671 5673 5674 5675 5677 5679 5681 5684 5685 5687 5688 5690 5691 5692 5693 5693 5694 5694 5695 5695 5695 5695 5694 5694 5693 5692 5691 5689 5688 5686 5684 5682 5680 5677 5674
5645 5647 5649 5652 5654 5656 5658 5659 5661 5662 5664 5665 5666 5668 5670 5672 5674 5676 5677 5679 5680 5681 5682 5683 5683 5684 5684 5684 5684 5684 5684 5683 5683 5682 5681 5679 5678 5677 5675 5673 5671 5669 5666 5663
5637 5639 5641 5644 5646 5647 5649 5650 5652 5653 5655 5656 5658 5659 5661 5663 5665 5666 5668 5669 5670 5671 5672 5672 5672 5673 5673 5673 5673 5673 5673 5672 5671 5671 5669 5668 5667 5665 5664 5662 5660 5657 5655 5652